Location: Northam
(31.6525°S, 116.6655°E)
Time: 22:54:32
(UTC+08:00)

Envisat - Pass Details

Date: 20 May 2021
Orbit: 764 x 766 km, 98.1° (Epoch: 14 June)

Event Time Altitude Azimuth Distance (km) Brightness Sun altitude
Rises 18:52:07 0° 190° (S) 3,263 6.2 -19.1°
Reaches altitude 10° 18:55:21 10° 211° (SSW) 2,328 5.7 -19.7°
Maximum altitude 18:58:16 16° 247° (WSW) 1,962 5.8 -20.3°
Drops below altitude 10° 19:01:11 10° 282° (WNW) 2,313 6.7 -20.9°
Sets 19:04:23 0° 303° (WNW) 3,229 7.4 -21.6°
